KENT RIDGE 1

导读

KENT RIDGE 1是新加坡(SG)于2015年12月16日08:00发射的小型卫星,以新加坡国立大学肯特岗校区命名,由新加坡国立大学主导研发,是该国高校自主研制的微小卫星项目成果。卫星主要用于空间技术试验与对地观测验证,推动新加坡航天人才培养,也为东南亚区域微小卫星技术发展提供了实践样本,是新加坡航天领域产学研结合的代表性项目。

基本信息
目录编号:
41167
目录名称:
KENT RIDGE 1
国际标识:
2015-077B
轨道中心:
EARTH
卫星名称:
KENT RIDGE 1
卫星全名:
--
卫星状态:
在轨 (已飞行3833 天)
发射日期:
2015-12-16 UTC
国别 :
新加坡 (SG)
星等 :
--
轨道信息
数据来源 国际轨道数据
星历时间: 2026-06-15T00:11:57+0800
6小时前
查看轨道信息
半长轴: 6874.577km
偏心率: 0.000824
轨道倾角: 14.979°
近地点辐角 203.003°
升交点赤经 284.678°
平近点角 156.993°
近地点: 490.775km
远地点: 502.105km
周期: 94.543分钟
每日圈数: 15.231191
详细信息
使用方式:
暂无
2D轨道图
3D轨道图
轨道高度分析图
轨道倾角分析图
轨道综合分析图
查看轨道综合分析图